Istanbul, Turkey

6:48 AM +03 on May 30, 2017 (GMT +0300)
Ataturk

Weather History for LTBA - February, 2012

Change the Weather History Date:

Sunday, February 12, 2012

  Actual Average Record
Temperature  
Mean Temperature 44 °F -  
Max Temperature 54 °F 49 °F 62 °F (2014)
Min Temperature 35 °F 38 °F 23 °F (2005)
Degree Days  
Heating Degree Days 20    
Moisture  
Dew Point 30 °F    
Average Humidity 62    
Maximum Humidity 81    
Minimum Humidity 28    
Precipitation  
Precipitation 0.00 in - - ()
Sea Level Pressure  
Sea Level Pressure 30.23 in    
Wind  
Wind Speed 9 mph ()    
Max Wind Speed 14 mph    
Max Gust Speed -    
Visibility 7.5 miles    
Events      
Averages and records for this station are not official NWS values.
T = Trace of Precipitation, MM = Missing Value Source: Averaged Metar Reports

Daily Weather History Graph

Daily Weather History Graph

Search for Another Location

Airport or City:

Trip Planner

Search our weather history database for the weather conditions in past years. The results will help you decide how hot, cold, wet, or windy it might be!

Date:

Astronomy

Feb. 12, 2012 Rise Set
Actual Time 7:03 AM EET 5:34 PM EET
Civil Twilight 6:35 AM EET 6:02 PM EET
Nautical Twilight 6:03 AM EET 6:35 PM EET
Astronomical Twilight 5:31 AM EET 7:07 PM EET
Moon 11:13 PM EET (2/12) 9:07 AM EET (2/12)
Length of Visible Light 11h 27m
Length of Day
10h 30m
Waning Gibbous, 75% of the Moon is Illuminated
Feb 12
Waning Gibbous
Feb 14
Last Quarter
Feb 22
New
Mar 1
First Quarter
Mar 8
Full

Hourly Weather History & Observations

Time (EET) Temp. Windchill Dew Point Humidity Pressure Visibility Wind Dir Wind Speed Gust Speed Precip Events Conditions
12:20 AM 37.4 °F 30.8 °F 28.4 °F 70% 30.33 in - NE 9.2 mph - N/A   Clear
12:50 AM 37.4 °F 30.8 °F 28.4 °F 70% 30.33 in - NE 9.2 mph - N/A   Clear
1:20 AM 37.4 °F 30.8 °F 28.4 °F 70% 30.33 in - NE 9.2 mph - N/A   Clear
1:50 AM 37.4 °F 31.4 °F 28.4 °F 70% 30.30 in - NE 8.1 mph - N/A   Clear
2:00 AM 37 °F - 29 °F 64% 30.33 in 12 mi NE 8.1 mph - -  
2:20 AM 37.4 °F 30.8 °F 28.4 °F 70% 30.30 in - NE 9.2 mph - N/A   Clear
2:50 AM 37.4 °F 31.4 °F 30.2 °F 75% 30.30 in - NE 8.1 mph - N/A   Clear
3:20 AM 35.6 °F 28.6 °F 28.4 °F 75% 30.30 in - NNE 9.2 mph - N/A   Clear
3:50 AM 35.6 °F 29.2 °F 30.2 °F 81% 30.30 in - NNE 8.1 mph - N/A   Clear
4:20 AM 35.6 °F 28.0 °F 30.2 °F 81% 30.30 in - NNE 10.4 mph - N/A   Clear
4:50 AM 37.4 °F 30.3 °F 30.2 °F 75% 30.27 in - NNE 10.4 mph - N/A   Clear
5:20 AM 37.4 °F 30.8 °F 30.2 °F 75% 30.27 in - NE 9.2 mph - N/A   Clear
5:50 AM 37.4 °F 30.8 °F 28.4 °F 70% 30.27 in - NE 9.2 mph - N/A   Clear
6:20 AM 37.4 °F 30.8 °F 28.4 °F 70% 30.27 in - NE 9.2 mph - N/A   Clear
6:50 AM 37.4 °F 30.3 °F 28.4 °F 70% 30.27 in - NE 10.4 mph - N/A   Clear
7:20 AM 37.4 °F 32.1 °F 26.6 °F 65% 30.27 in - Variable 6.9 mph - N/A   Clear
7:50 AM 37.4 °F 32.1 °F 26.6 °F 65% 30.30 in - ENE 6.9 mph - N/A   Clear
8:00 AM 37 °F - 27 °F 56% 30.31 in 6 mi ENE 6.9 mph - -  
8:20 AM 39.2 °F 33.0 °F 26.6 °F 61% 30.27 in - ENE 9.2 mph - N/A   Clear
8:50 AM 39.2 °F 33.6 °F 26.6 °F 61% 30.27 in - ENE 8.1 mph - N/A   Clear
9:20 AM 41.0 °F 35.2 °F 26.6 °F 57% 30.27 in - ENE 9.2 mph - N/A   Clear
9:50 AM 42.8 °F 37.0 °F 28.4 °F 57% 30.27 in - ENE 10.4 mph - N/A   Clear
10:20 AM 42.8 °F 37.0 °F 28.4 °F 57% 30.27 in - NE 10.4 mph - N/A   Clear
10:50 AM 44.6 °F 39.2 °F 28.4 °F 53% 30.24 in - Variable 10.4 mph - N/A   Clear
11:20 AM 48.2 °F - 28.4 °F 46% 30.24 in - East 9.2 mph - N/A   Clear
11:50 AM 48.2 °F - 26.6 °F 43% 30.24 in - Variable 9.2 mph - N/A   Clear
12:20 PM 48.2 °F - 26.6 °F 43% 30.21 in - ENE 8.1 mph - N/A   Clear
12:50 PM 50.0 °F - 26.6 °F 40% 30.21 in - ENE 8.1 mph - N/A   Clear
1:20 PM 50.0 °F - 26.6 °F 40% 30.21 in - ENE 4.6 mph - N/A   Clear
1:50 PM 51.8 °F - 26.6 °F 38% 30.21 in - East 6.9 mph - N/A   Clear
2:00 PM 52 °F - 29 °F 28% 30.22 in 6 mi East 6.9 mph - -  
2:20 PM 53.6 °F - 30.2 °F 41% 30.18 in - East 6.9 mph - N/A   Clear
2:50 PM 51.8 °F - 32.0 °F 47% 30.18 in - NE 8.1 mph - N/A   Clear
3:20 PM 50.0 °F - 32.0 °F 50% 30.18 in - NE 8.1 mph - N/A   Clear
3:50 PM 50.0 °F - 32.0 °F 50% 30.18 in - NE 8.1 mph - N/A   Clear
4:20 PM 48.2 °F - 32.0 °F 54% 30.18 in - NNE 10.4 mph - N/A   Clear
4:50 PM 46.4 °F 41.5 °F 32.0 °F 57% 30.18 in - NNE 10.4 mph - N/A   Clear
5:20 PM 44.6 °F 38.8 °F 30.2 °F 57% 30.15 in - NNE 11.5 mph - N/A   Clear
5:50 PM 44.6 °F 38.4 °F 30.2 °F 57% 30.18 in - NNE 12.7 mph - N/A   Clear
6:20 PM 42.8 °F 35.8 °F 32.0 °F 66% 30.18 in - NNE 13.8 mph - N/A   Clear
6:50 PM 41.0 °F 34.3 °F 32.0 °F 70% 30.18 in - NNE 11.5 mph - N/A   Clear
7:20 PM 41.0 °F 33.9 °F 32.0 °F 70% 30.18 in - NNE 12.7 mph - N/A   Clear
7:50 PM 41.0 °F 33.9 °F 32.0 °F 70% 30.18 in - NNE 12.7 mph - N/A   Clear
8:00 PM 41 °F - 32 °F 62% 30.19 in 6 mi NNE 12.7 mph - -  
8:20 PM 42.8 °F 37.0 °F 33.8 °F 70% 30.18 in - NNE 10.4 mph - N/A   Clear
8:50 PM 41.0 °F 34.3 °F 33.8 °F 76% 30.18 in - NNE 11.5 mph - N/A   Clear
9:20 PM 41.0 °F 33.9 °F 33.8 °F 76% 30.18 in - NNE 12.7 mph - N/A   Clear
9:50 PM 41.0 °F 34.7 °F 33.8 °F 76% 30.15 in - NE 10.4 mph - N/A   Clear
10:20 PM 41.0 °F 34.7 °F 33.8 °F 76% 30.15 in - NE 10.4 mph - N/A   Clear
10:50 PM 41.0 °F 34.7 °F 33.8 °F 76% 30.15 in - NNE 10.4 mph - N/A   Clear
11:20 PM 41.0 °F 35.2 °F 33.8 °F 76% 30.15 in - NNE 9.2 mph - N/A   Clear
11:50 PM 41.0 °F 35.2 °F 33.8 °F 76% 30.15 in - NNE 9.2 mph - N/A   Clear